Home > Weather > Labrador City > Past weeks

Flag for Canada Past Weather in Labrador City, Newfoundland and Labrador, Canada — Yesterday and Last 2 Weeks

Now
48 °F

Clear.


Feels Like: 46 °F
Forecast: 45 / 65 °F
Wind: 6 mph from West

Location: Wabush Lake

Current Time: Aug 27, 2016 at 8:57:21 AM

Latest Report: Aug 27, 2016 at 8:00 AM


Visibility: 15 mi

Pressure: 30.18 "Hg (28.21 "Hg at 558m altitude)

Humidity: 76%

Dew Point: 41 °F

Location of Labrador CityLocation

Past Weather in Labrador City — Graph

°F

Labrador City Temperature Yesterday

Maximum temperature yesterday: 61 °F (at 3:00 PM)
Minimum temperature yesterday: 41 °F (at 4:00 AM)
Average temperature yesterday: 52 °F

High & Low Weather Summary for the Past Weeks

 TemperatureHumidityPressure
High70 °F (Aug 15, 6:00 PM)100% (Aug 14, 5:00 AM)30.17 "Hg (Aug 14, 5:00 AM)
Low37 °F (Aug 27, 7:00 AM)37% (Aug 24, 5:00 PM)29.62 "Hg (Aug 22, 6:00 AM)
Average56 °F79%29.90 "Hg
* Reported Aug 12 7:00 AM — Aug 27 7:00 AM, Labrador City, Weather by CustomWeather, © 2016

Note: Actual official high and low records may vary slightly from our data, if they occured in-between our weather recording intervals... More about our weather records

Advertising

Labrador City Weather History for the Previous 24 Hours

Scroll right to see more
 ConditionsComfort  
Time TempWeatherWind HumidityBarometerVisibility
7:00 AM
Sat, Aug 27
37 °FClear.5 mph93%30.17 "Hg15 mi
6:00 AM39 °FClear.3 mph93%30.14 "Hg15 mi
5:00 AM39 °FClear.5 mph93%30.11 "Hg9 mi
4:00 AM39 °FClear.5 mph93%30.10 "Hg9 mi
3:00 AM41 °FClear.No wind87%30.08 "Hg9 mi
2:00 AM48 °FClear.3 mph71%30.06 "Hg9 mi
1:00 AM50 °FClear.8 mph67%30.05 "Hg9 mi
12:00 AM50 °FClear.7 mph71%30.03 "Hg9 mi
11:00 PM
Fri, Aug 26
54 °FPassing clouds.13 mph58%30.00 "Hg9 mi
10:00 PM52 °FPassing clouds.5 mph88%29.98 "Hg15 mi
9:00 PM55 °FPartly sunny.5 mph77%29.95 "Hg15 mi
8:00 PM57 °FPartly sunny.2 mph77%29.93 "Hg15 mi
7:00 PM61 °FPartly sunny.No wind55%29.91 "Hg15 mi
6:00 PM61 °FPartly sunny.No wind55%29.88 "Hg15 mi
5:00 PM61 °FPartly sunny.No wind55%29.87 "Hg15 mi
4:00 PM61 °FOvercast.No wind59%29.86 "Hg15 mi
3:00 PM61 °FMostly cloudy.No wind59%29.85 "Hg15 mi
2:00 PM59 °FCloudy.3 mph63%29.86 "Hg15 mi
1:00 PM59 °FBroken clouds.No wind59%29.86 "Hg15 mi
12:00 PM57 °FBroken clouds.2 mph67%29.87 "Hg15 mi
11:00 AM54 °FBroken clouds.2 mph77%29.86 "Hg15 mi
10:00 AM52 °FPartly sunny.No wind77%29.88 "Hg15 mi
9:00 AM48 °FPartly sunny.5 mph87%29.88 "Hg15 mi
8:00 AM46 °FPartly cloudy.2 mph87%29.89 "Hg15 mi
Weather by CustomWeather, © 2016

See weather overviewHow to use our weather pages